Regional Weather Roundup
Issued by NWS

Home | Current Version | Previous Version | Graphics & Text | Print | Product List | Glossary On
Versions: 1 2 3 4 5 6 7 8 9 10 11 12 13 14 15 16 17 18 19 20 21 22 23 24 25 26 27 28 29 30 31 32 33 34 35 36 37 38 39 40 41 42 43 44 45 46 47 48 49 50
000
ASUS45 KPSR 181400
RWRAZ

PRELIMINARY ARIZONA REGIONAL HOURLY WEATHER ROUNDUP
NATIONAL WEATHER SERVICE PHOENIX AZ
700 AM MST FRI APR 18 2014

NOTE: FAIR INDICATES FEW OR NO CLOUDS BELOW 12,000 FEET WITH NO
SIGNIFICANT WEATHER AND/OR OBSTRUCTIONS TO VISIBILITY.

AZZ001>003-036-181500-
NORTHWEST ARIZONA

CITY           SKY/WX    TMP DP  RH WIND       PRES   REMARKS
KINGMAN        PTSUNNY   62  20  19 SE14      29.91R
$$

AZZ004>008-015-016-018-181500-
NORTH CENTRAL ARIZONA

CITY           SKY/WX    TMP DP  RH WIND       PRES   REMARKS
GRAND CANYON   PTSUNNY   38  18  44 CALM      30.08R
WILLIAMS       CLOUDY    46  18  31 SE7       30.15R
PRESCOTT       CLOUDY    55  23  28 CALM      30.03R
FLAGSTAFF      CLOUDY    38  23  55 CALM      30.11R
PAYSON         CLOUDY    57  23  26 S3        30.07R
PAGE           PTSUNNY   59  24  26 W3        29.97R
$$

AZZ009>014-017-181500-
NORTHEAST ARIZONA

CITY           SKY/WX    TMP DP  RH WIND       PRES   REMARKS
WINSLOW        NOT AVBL
SAINT JOHNS    PTSUNNY   48  17  29 CALM      30.07S
WINDOW ROCK    MOSUNNY   39  18  42 NE7       30.16R WCI  34
SHOW LOW       PTSUNNY   46  18  31 CALM      30.13R
$$

AZZ023-181500-
GREATER PHOENIX AREA

CITY           SKY/WX    TMP DP  RH WIND       PRES   REMARKS
PHOENIX        CLOUDY    71  34  25 E8        29.86R
GLENDALE       CLOUDY    66  37  34 CALM      29.88R
DEER VALLEY    CLOUDY    67  31  26 CALM      29.88R
SCOTTSDALE     CLOUDY    66  38  35 SE3       29.90R
MESA-FALCON    CLOUDY    66  34  30 N6        29.89R
MESA-GATEWAY   PTSUNNY   64  36  34 SE7       29.90R
CHANDLER       PTSUNNY   66  37  34 CALM      29.88R
$$

AZZ027-028-181500-
SOUTHWEST MARICOPA COUNTY AND PINAL COUNTY

CITY           SKY/WX    TMP DP  RH WIND       PRES   REMARKS
CASA GRANDE    CLOUDY    66  34  30 CALM      29.90R
GILA BEND      CLOUDY    68  36  30 E3        29.87
$$

AZZ503-504-507>509-181500-
SOUTHEAST ARIZONA

CITY           SKY/WX    TMP DP  RH WIND       PRES   REMARKS
TUCSON         CLOUDY    68  40  35 SE9       29.96S
DAVIS-MONTHAN  CLOUDY    66  39  37 SE8       29.96R
RYAN FIELD       N/A     64  32  29 MISG      29.96R
NOGALES        CLOUDY    63  42  46 SE3       30.02R
SIERRA VISTA   CLOUDY    61  28  29 W5        30.05R
SAFFORD        CLOUDY    65  24  21 S13       29.98R
$$

AZZ020-021-025-026-031-181500-
SOUTHWEST ARIZONA

CITY           SKY/WX    TMP DP  RH WIND       PRES   REMARKS
YUMA           CLOUDY    72  49  44 SE14      29.80R
$$

CAZ031-033-041-043-047-048-061-181500-
SOUTHERN CALIFORNIA

CITY           SKY/WX    TMP DP  RH WIND       PRES   REMARKS
DOWNTOWN L.A.  CLOUDY    62  52  69 CALM      29.88R
L.A. AIRPORT   MOCLDY    62  51  67 CALM      29.89R
SAN DIEGO      CLOUDY    62  52  69 S6        29.90R
BURBANK        LGT RAIN  56  53  90 S5        29.89R
ONTARIO        CLOUDY    59  53  80 W8        29.88R HAZE
RIVERSIDE      CLOUDY    59  53  80 W6        29.88R
PALM SPRINGS   CLOUDY    66  52  60 NE3       29.81R
EL CENTRO NAS  CLOUDY    65  54  67 CALM      29.78R
IMPERIAL       CLOUDY    66  54  65 SE6       29.77R
BLYTHE         CLOUDY    68  42  38 SE7       29.81R
$$

NVZ020-UTZ003-181500-
SOUTHERN NEVADA-UTAH

CITY           SKY/WX    TMP DP  RH WIND       PRES   REMARKS
LAS VEGAS      NOT AVBL
SALT LAKE CITY CLOUDY    64  23  21 S17G26    29.82S
$$

NMZ009-TXZ055-181500-
NEW MEXICO-WEST TEXAS

CITY           SKY/WX    TMP DP  RH WIND       PRES   REMARKS
ALBUQUERQUE    MOSUNNY   48  27  44 N6        30.17R
EL PASO        PTSUNNY   57  42  57 N7        30.13R
$$


........................KEY........................
SKY/WX - SKY CONDITION/WEATHER
TMP    - TEMPERATURE IN FAHRENHEIT
DP     - DEW POINT IN FAHRENHEIT
RH     - RELATIVE HUMIDITY IN PERCENT
WIND   - DIRECTION AND SPEED IN MILES PER HOUR (MPH)
VRB    - VARIABLE WIND DIRECTION
PRES   - MEAN SEA LEVEL PRESSURE IN INCHES OF MERCURY
         F - FALLING PRESSURE   R - RISING PRESSURE
         S - STEADY PRESSURE
VSB    - VISIBILITY IN MILES
HX     - HEAT INDEX IN FAHRENHEIT
WCI    - WIND CHILL INDEX IN FAHRENHEIT
TC     - TEMPERATURE IN CELSIUS WHICH IS ALSO KNOWN AS
         TEMPERATURE IN CENTIGRADE
AFB    - AIR FORCE BASE
         LUKE AFB IS LUKE AIR FORCE BASE
         DAVIS-MONTHAN IS DAVIS-MONTHAN AIR FORCE BASE
NAS    - NAVAL AIR STATION
         EL CENTRO NAS IS EL CENTRO NAVAL AIR STATION
N/A    - NOT AVAILABLE



USA.gov is the U.S. government's official web portal to all federal, state and local government web resources and services.